Tracking 27112 objects as of 26-Mar-2023
HD Live streaming from Space Station
objects crossing your sky now

STARLINK-3869

Track STARLINK-3869 now!
10-day predictions
STARLINK-3869 is classified as:


NORAD ID: 52547
Int'l Code: 2022-051Q
Perigee: 546.0 km
Apogee: 547.8 km
Inclination: 53.2 °
Period: 95.4 minutes
Semi major axis: 6917 km
RCS: Unknown
Launch date: May 13, 2022
Source: United States (US)
Launch site: AIR FORCE WESTERN TEST RANGE (AFWTR)
Your satellite tracking list
Your tracking list is empty




NASA's NSSDC Master Catalog

Two Line Element Set (TLE):
1 52547U 22051Q   23084.86950113 -.00002245  00000-0 -12306-3 0  9993
2 52547  53.2154 301.6198 0001352  84.9594 275.1552 15.08832579 48358
Source of the keplerian elements: AFSPC